Weather History for LEGE - December, 2012

Change the Weather History Date:

Thursday, December 13, 2012

  Actual Average Record
Temperature  
Mean Temperature 50 °F -  
Max Temperature 58 °F 55 °F 68 °F (1998)
Min Temperature 41 °F 36 °F 26 °F (2007)
Degree Days  
Heating Degree Days 16    
Moisture  
Dew Point 43 °F    
Average Humidity 77    
Maximum Humidity 100    
Minimum Humidity 47    
Precipitation  
Precipitation 0.00 in 0.07 in - ()
Sea Level Pressure  
Sea Level Pressure 29.87 in    
Wind  
Wind Speed 6 mph ()    
Max Wind Speed 16 mph    
Max Gust Speed -    
Visibility 6.9 miles    
Events      
Averages and records for this station are not official NWS values.
T = Trace of Precipitation, MM = Missing Value Source: Averaged Metar Reports

Daily Weather History Graph

Daily Weather History Graph

Search for Another Location

Airport or City:

Trip Planner

Search our weather history database for the weather conditions in past years. The results will help you decide how hot, cold, wet, or windy it might be!

Date:

Astronomy

Dec. 13, 2012 Rise Set
Actual Time 8:08 AM CET 5:18 PM CET
Civil Twilight 7:36 AM CET 5:49 PM CET
Nautical Twilight 7:01 AM CET 6:24 PM CET
Astronomical Twilight 6:27 AM CET 6:58 PM CET
Moon 8:00 AM CET (12/13) 5:43 PM CET (12/13)
Length of Visible Light 10h 13m
Length of Day
9h 09m
New Moon, 0% of the Moon is Illuminated
Dec 13
New Moon
Dec 20
First Quarter
Dec 28
Full
Jan 5
Last Quarter
Jan 11
New

Hourly Weather History & Observations

Time (CET) Temp. Windchill Dew Point Humidity Pressure Visibility Wind Dir Wind Speed Gust Speed Precip Events Conditions
12:00 AM 42.8 °F 38.6 °F 39.2 °F 87% 29.98 in 6.2 mi South 6.9 mph - N/A   Mostly Cloudy
12:30 AM 42.8 °F - 39.2 °F 87% 29.95 in 6.2 mi Calm Calm - N/A   Scattered Clouds
1:00 AM 44 °F - 40 °F 80% 29.96 in 12 mi Calm Calm - -   Partly Cloudy
1:00 AM 42.8 °F - 41.0 °F 93% 29.95 in 6.2 mi Calm Calm - N/A   Scattered Clouds
1:30 AM 46.4 °F 42.9 °F 44.6 °F 93% 29.95 in 6.2 mi SW 6.9 mph - N/A   Partly Cloudy
2:00 AM 48.2 °F - 42.8 °F 82% 29.95 in 6.2 mi SW 8.1 mph - N/A   Partly Cloudy
2:30 AM 48.2 °F - 42.8 °F 82% 29.92 in 6.2 mi SW 8.1 mph - N/A   Partly Cloudy
3:30 AM 46.4 °F 41.9 °F 42.8 °F 87% 29.92 in 6.2 mi SSW 9.2 mph - N/A   Partly Cloudy
4:00 AM 48.2 °F - 42.8 °F 82% 29.92 in 6.2 mi SW 10.4 mph - N/A   Partly Cloudy
4:30 AM 46.4 °F 42.4 °F 42.8 °F 87% 29.92 in 6.2 mi SSW 8.1 mph - N/A   Scattered Clouds
5:00 AM 46.4 °F 42.9 °F 42.8 °F 87% 29.92 in 6.2 mi SW 6.9 mph - N/A   Mostly Cloudy
5:30 AM 46.4 °F 45.2 °F 42.8 °F 87% 29.92 in 6.2 mi WSW 3.5 mph - N/A   Mostly Cloudy
6:00 AM 46.4 °F 45.2 °F 42.8 °F 87% 29.89 in 6.2 mi SSW 3.5 mph - N/A   Mostly Cloudy
6:30 AM 46.4 °F - 42.8 °F 87% 29.89 in 6.2 mi Variable 2.3 mph - N/A   Mostly Cloudy
7:00 AM 47 °F - 43 °F 80% 29.89 in 16 mi SSE 3.5 mph - -   Mostly Cloudy
7:00 AM 44.6 °F - 42.8 °F 93% 29.89 in 6.2 mi SSE 2.3 mph - N/A   Mostly Cloudy
7:30 AM 46.4 °F 45.2 °F 42.8 °F 87% 29.89 in 6.2 mi SSW 3.5 mph - N/A   Scattered Clouds
8:00 AM 46.4 °F 43.5 °F 42.8 °F 87% 29.89 in 6.2 mi SW 5.8 mph - N/A   Scattered Clouds
8:30 AM 44.6 °F 42.2 °F 42.8 °F 93% 29.89 in 6.2 mi SW 4.6 mph - N/A   Scattered Clouds
9:00 AM 42.8 °F - 42.8 °F 100% 29.92 in 6.2 mi Calm Calm - N/A   Scattered Clouds
9:30 AM 46.4 °F - 46.4 °F 100% 29.89 in 6.2 mi Variable 1.2 mph - N/A   Scattered Clouds
10:00 AM 48.2 °F - 46.4 °F 93% 29.92 in 6.2 mi Calm Calm - N/A   Scattered Clouds
10:30 AM 50.0 °F - 46.4 °F 87% 29.92 in 6.2 mi Variable 2.3 mph - N/A   Partly Cloudy
11:00 AM 51.8 °F - 46.4 °F 82% 29.92 in 6.2 mi SSW 6.9 mph - N/A   Partly Cloudy
11:30 AM 53.6 °F - 44.6 °F 72% 29.89 in 6.2 mi SW 6.9 mph - N/A   Partly Cloudy
12:00 PM 53.6 °F - 44.6 °F 72% 29.89 in 6.2 mi SSW 11.5 mph - N/A   Partly Cloudy
12:30 PM 55.4 °F - 42.8 °F 63% 29.86 in 6.2 mi SSW 10.4 mph - N/A   Partly Cloudy
1:00 PM 56 °F - 42 °F 47% 29.86 in 14 mi SSW 13.8 mph - -   Scattered Clouds
1:00 PM 55.4 °F - 41.0 °F 58% 29.86 in 6.2 mi SW 11.5 mph - N/A   Partly Cloudy
1:30 PM 55.4 °F - 41.0 °F 58% 29.86 in 6.2 mi SSW 12.7 mph - N/A   Partly Cloudy
2:00 PM 55.4 °F - 41.0 °F 58% 29.86 in 6.2 mi SSW 15.0 mph - N/A   Partly Cloudy
2:30 PM 55.4 °F - 41.0 °F 58% 29.83 in 6.2 mi SSW 16.1 mph - N/A   Partly Cloudy
3:00 PM 55.4 °F - 41.0 °F 58% 29.83 in - SSW 13.8 mph - N/A   Clear
3:30 PM 55.4 °F - 41.0 °F 58% 29.80 in - SSW 16.1 mph - N/A   Clear
4:00 PM 55.4 °F - 41.0 °F 58% 29.80 in - South 13.8 mph - N/A   Clear
4:30 PM 53.6 °F - 41.0 °F 62% 29.80 in - SSW 13.8 mph - N/A   Clear
5:00 PM 51.8 °F - 42.8 °F 71% 29.80 in - SSW 12.7 mph - N/A   Clear
5:30 PM 51.8 °F - 41.0 °F 67% 29.83 in - SSW 12.7 mph - N/A   Clear
6:00 PM 51.8 °F - 41.0 °F 67% 29.83 in - SSW 15.0 mph - N/A   Clear
6:30 PM 51.8 °F - 42.8 °F 71% 29.83 in - SSW 12.7 mph - N/A   Clear
7:00 PM 53 °F - 44 °F 62% 29.83 in 11 mi SW 10.4 mph - -   Partly Cloudy
7:00 PM 51.8 °F - 42.8 °F 71% 29.83 in - SW 10.4 mph - N/A   Clear
7:30 PM 51.8 °F - 42.8 °F 71% 29.83 in - SSW 10.4 mph - N/A   Clear
8:00 PM 50.0 °F - 42.8 °F 76% 29.80 in - SW 13.8 mph - N/A   Clear
8:30 PM 50.0 °F - 42.8 °F 76% 29.80 in 6.2 mi SW 11.5 mph - N/A   Partly Cloudy
9:00 PM 50.0 °F - 42.8 °F 76% 29.83 in 6.2 mi SW 12.7 mph - N/A   Partly Cloudy
9:30 PM 50.0 °F - 42.8 °F 76% 29.80 in 6.2 mi SW 13.8 mph - N/A   Partly Cloudy
10:00 PM 50.0 °F - 42.8 °F 76% 29.83 in 6.2 mi SW 11.5 mph - N/A   Partly Cloudy
10:30 PM 48.2 °F - 42.8 °F 82% 29.83 in 6.2 mi SW 10.4 mph - N/A   Partly Cloudy
11:00 PM 48.2 °F - 42.8 °F 82% 29.80 in 6.2 mi South 6.9 mph - N/A   Partly Cloudy